SCP
0 0 0 0 0 0 0 0 0 0 0 0 0 0 0 0 0 0 0 0 0 0 0 0 0 0 0 0 0 0 0 0 0 0 0 0 0 0 0 0 0 0 0
0 0 0 0 0 0 0 0 0 0 0 0 0 0 0 0 0 0 0 0 0 0 0 0 0 0 0 0 0 0 0 0 0 0 0 0 0 0 0 0 0 0 0
0 0 0 0 0 0 0 0 0 0 0 0 0 0 0 0 0 0 0 0 0 0 0 0 0 0 0 0 0 0 0 0 0 0 0 0 0 0 0 0 0 0 0
0 0 0 0 0 0 0 0 0 0 0 0 0 0 0 0 0 0 0 0 0 0 0 0 0 0 0 0 0 0 0 0 0 0 0 0 0 0 0 0 0 0 0
0 0 0 0 0 0 0 0 0 0 0 0 0 0 0 0 0 0 0 0 0 0 0 0 0 0 0 0 0 0 0 0 0 0 0 0 0 0 0 0 0 0 0
0 0 0 0 0 0 0 0 0 0 0 0 0 0 0 0 0 0 0 0 0 0 0 0 0 0 0 0 0 0 0 0 0 0 0 0 0 0 0 0 0 0 0
0 0 0 0 0 0 0 0 0 0 0 0 0 0 0 0 0 0 0 0 0 0 0 0 0 0 0 0 0 0 0 0 0 0 0 0 0 0 0 0 0 0 0
0 0 0 0 0 0 0 0 0 0 0 0 0 0 0 0 0 0 0 0 0 0 0 0 0 0 0 0 0 0 0 0 0 0 0 0 0 0 0 0 0 0 0
0 0 0 0 0 0 0 0 0 0 0 0 0 0 0 0 0 0 0 0 0 0 0 0 0 0 0 0 0 0 0 0 0 0 0 0 0 0 0 0 0 0 0
0 0 0 0 0 0 0 0 0 0 0 0 0 0 0 0 0 0 0 0 0 0 0 0 0 0 0 0 0 0 0 0 0 0 0 0 0 0 0 0 0 0 0
0 0 0 0 0 0 0 0 0 0 0 0 0 0 0 0 0 0 0 0 0 0 0 0 0 0 0 0 0 0 0 0 0 0 0 0 0 0 0 0 0 0 0
0 0 0 0 0 0 0 0 0 0 0 0 0 0 0 0 0 0 0 0 0 0 0 0 0 0 0 0 0 0 0 0 0 0 0 0 0 0 0 0 0 0 0
0 0 0 0 0 0 0 0 0 0 0 0 0 0 0 0 0 0 0 0 0 0 0 0 0 0 0 0 0 0 0 0 0 0 0 0 0 0 0 0 0 0 0
0 0 0 0 0 0 0 0 0 0 0 0 0 0 0 0 0 0 0 0 0 0 0 0 0 0 0 0 0 0 0 0 0 0 0 0 0 0 0 0 0 0 0
0 0 0 0 0 0 0 0 0 0 0 0 0 0 0 0 0 0 0 0 0 0 0 0 0 0 0 0 0 0 0 0 0 0 0 0 0 0 0 0 0 0 0
0 0 0 0 0 0 0 0 0 0 0 0 0 0 0 0 0 0 0 0 0 0 0 0 0 0 0 0 0 0 0 0 0 0 0 0 0 0 0 0 0 0 0
0 0 0 0 0 0 0 0 0 0 0 0 0 0 0 0 0 0 0 0 0 0 0 0 0 0 0 0 0 0 0 0 0 0 0 0 0 0 0 0 0 0 0
0 0 0 0 0 0 0 0 0 0 0 0 0 0 0 0 0 0 0 0 0 0 0 0 0 0 0 0 0 0 0 0 0 0 0 0 0 0 0 0 0 0 0
0 0 0 0 0 0 0 0 0 0 0 0 0 0 0 0 0 0 0 0 0 0 0 0 0 0 0 0 0 0 0 0 0 0 0 0 0 0 0 0 0 0 0
0 0 0 0 0 0 0 0 0 0 0 0 0 0 0 0 0 0 0 0 0 0 0 0 0 0 0 0 0 0 0 0 0 0 0 0 0 0 0 0 0 0 0
0 0 0 0 0 0 0 0 0 0 0 0 0 0 0 0 0 0 0 0 0 0 0 0 0 0 0 0 0 0 0 0 0 0 0 0 0 0 0 0 0 0 0
0 0 0 0 0 0 0 0 0 0 0 0 0 0 0 0 0 0 0 0 0 0 0 0 0 0 0 0 0 0 0 0 0 0 0 0 0 0 0 0 0 0 0
0 0 0 0 0 0 0 0 0 0 0 0 0 0 0 0 0 0 0 0 0 0 0 0 0 0 0 0 0 0 0 0 0 0 0 0 0 0 0 0 0 0 0
0 0 0 0 0 0 0 0 0 0 0 0 0 0 0 0 0 0 0 0 0 0 0 0 0 0 0 0 0 0 0 0 0 0 0 0 0 0 0 0 0 0 0
0 0 0 0 0 0 0 0 0 0 0 0 0 0 0 0 0 0 0 0 0 0 0 0 0 0 0 0 0 0 0 0 0 0 0 0 0 0 0 0 0 0 0
0 0 0 0 0 0 0 0 0 0 0 0 0 0 0 0 0 0 0 0 0 0 0 0 0 0 0 0 0 0 0 0 0 0 0 0 0 0 0 0 0 0 0
Wind_Speed
5 6 12 14 14 13 13 11 9 8 7 8 9 9 8 8 8 8 6 4 4 7 10 13 13 14 14 13 12 14 15 16 16 15 15 14 13 9 7 7 6 4 8
7 7 10 12 15 15 14 13 11 10 9 10 11 10 8 7 8 9 8 8 9 11 12 13 12 13 14 15 16 16 17 16 16 15 15 14 15 14 9 7 7 5 8
6 7 8 9 11 12 13 13 13 12 12 11 11 11 10 10 9 8 8 9 10 12 13 12 11 11 12 12 13 14 14 14 14 14 14 9 10 15 11 8 9 11 11
7 6 6 9 10 10 11 13 13 13 13 12 11 11 11 10 9 8 7 8 9 10 10 10 9 10 10 11 12 12 12 13 13 13 8 7 7 13 14 9 8 9 10
7 6 6 10 11 10 10 11 12 13 14 13 11 10 10 10 9 8 8 8 9 9 9 9 9 10 10 10 11 12 12 13 14 10 6 6 5 11 13 12 7 6 7
6 6 7 11 13 12 11 11 11 12 13 13 12 12 12 11 10 9 8 9 9 9 9 9 9 10 11 11 12 12 13 14 11 6 6 6 5 10 12 14 12 4 4
6 5 6 11 12 14 14 14 13 12 12 12 13 13 12 11 10 9 9 9 9 9 9 9 10 11 11 11 11 12 13 13 8 6 6 6 7 12 13 15 16 13 8
7 6 6 11 12 13 14 15 14 14 13 13 14 13 13 12 11 10 10 10 9 9 9 10 10 10 10 11 12 12 13 12 9 7 6 6 11 12 12 14 14 15 15
5 6 5 6 8 11 12 12 13 14 14 14 14 14 12 11 11 10 10 11 11 11 11 10 10 10 10 11 11 12 13 13 7 5 7 5 11 11 11 11 12 12 12
5 6 6 5 5 6 7 11 11 12 12 13 12 11 10 11 10 10 8 11 12 12 12 11 11 10 10 10 11 12 12 10 6 5 4 6 12 11 11 11 10 10 10
6 6 7 7 6 6 5 7 9 12 13 12 10 13 10 5 5 5 5 10 12 12 12 11 11 10 9 9 10 10 8 4 5 4 3 9 12 11 11 11 10 10 9
14 11 8 8 8 7 5 5 4 5 7 6 6 7 6 5 4 4 4 8 10 11 11 11 11 9 7 4 6 7 3 4 4 3 5 12 11 11 10 10 9 10 9
14 11 11 10 8 8 6 5 3 3 4 6 7 7 6 5 3 3 3 4 4 6 5 7 6 4 4 3 3 3 4 3 3 3 5 11 10 9 9 9 9 9 10
10 12 12 10 9 9 7 5 5 4 5 5 6 8 6 4 4 4 3 3 2 2 3 3 3 4 4 3 3 3 4 3 2 2 4 10 10 10 9 8 9 9 10
14 14 14 13 13 10 8 7 7 7 7 7 6 7 8 6 5 5 4 3 3 3 3 3 3 4 4 3 3 3 4 4 4 3 3 9 11 11 10 10 10 9 9
19 17 15 17 16 13 12 11 9 8 7 6 6 8 8 6 6 6 5 4 3 3 3 3 3 3 3 2 3 3 3 3 3 4 3 6 11 12 12 11 11 11 10
18 16 18 19 17 17 15 13 9 8 8 8 8 8 9 8 8 7 6 5 4 3 3 3 3 3 2 2 2 2 3 3 4 4 5 4 5 11 14 15 14 13 12
15 16 18 16 18 19 17 14 10 9 10 9 8 8 10 9 9 8 6 5 5 4 3 4 3 3 2 2 2 2 3 3 5 5 5 5 5 5 10 18 16 15 14
16 16 18 19 20 20 16 11 10 8 9 7 7 8 9 10 10 8 7 5 6 4 3 3 2 2 2 1 2 3 3 3 4 4 6 6 6 6 5 11 15 15 15
15 16 17 19 18 15 10 7 6 6 7 6 8 9 11 10 11 9 7 7 7 5 4 3 3 2 2 1 2 4 3 3 3 4 5 4 5 6 6 6 6 8 14
11 13 16 17 16 14 14 13 12 13 12 11 10 11 12 11 11 10 8 8 7 6 6 6 4 3 1 1 3 3 3 3 4 4 3 4 5 5 6 6 5 4 6
11 14 14 15 16 18 15 13 7 6 6 7 6 7 9 11 12 11 11 10 9 7 7 7 5 4 2 1 3 3 2 2 2 2 2 3 4 4 6 6 5 6 5
10 13 14 16 16 16 12 7 6 5 4 5 7 9 11 13 14 12 13 11 11 10 9 8 7 7 5 2 1 4 5 4 1 1 1 2 3 3 3 4 4 5 5
11 10 11 11 12 14 15 15 17 14 13 15 12 11 12 14 15 14 13 12 11 8 8 7 6 4 6 4 2 2 2 4 4 1 1 1 3 2 3 3 3 3 3
7 8 10 11 12 14 16 17 17 14 10 6 6 9 9 8 10 12 12 12 11 8 9 8 7 6 4 6 5 4 3 2 2 3 2 2 2 2 2 4 2 2 3
3 3 7 10 11 12 13 13 15 13 10 11 9 11 10 7 7 11 12 12 12 9 10 9 8 8 5 5 4 4 5 5 4 4 3 2 1 2 3 2 1 2 3
Wind_Direction
202 187 182 175 174 175 174 172 169 163 156 145 140 132 124 119 119 119 106 102 111 102 90 80 67 58 51 48 49 48 43 34 26 19 20 18 16 22 63 60 44 27 32
163 174 183 173 178 179 177 173 174 177 169 153 145 137 131 124 112 100 86 84 93 93 84 74 65 58 50 43 41 40 38 32 23 18 22 20 15 22 54 57 43 41 39
150 168 176 166 173 178 178 176 177 178 170 157 146 136 132 121 109 100 86 80 84 85 80 71 63 59 53 47 43 39 34 29 26 23 23 18 6 13 31 58 52 41 31
156 164 167 168 170 174 175 176 178 175 160 144 134 128 126 124 122 118 107 99 96 94 91 88 82 73 65 58 52 46 37 33 32 31 24 16 6 5 12 29 49 49 35
159 160 166 168 175 175 175 175 176 167 153 143 144 151 154 149 142 139 132 122 111 104 101 96 89 83 78 73 65 55 48 43 41 39 26 17 10 5 7 13 20 57 48
164 160 170 172 181 181 180 176 173 165 160 157 164 173 167 159 151 146 139 129 120 113 106 99 92 87 82 76 69 63 59 55 45 35 31 19 5 15 22 26 22 31 49
163 164 175 176 186 188 189 188 182 177 173 170 173 170 163 156 150 146 139 130 122 114 107 100 92 85 80 74 70 65 60 55 50 35 24 10 10 32 36 32 30 29 28
158 165 177 185 190 191 195 193 187 185 179 175 172 166 161 159 156 150 143 134 126 117 108 95 87 83 80 76 71 66 62 57 44 32 16 4 14 31 35 32 30 29 32
162 165 177 181 182 190 194 186 187 182 177 174 170 165 160 161 158 150 147 141 133 124 111 100 92 84 77 71 68 65 61 56 48 33 20 357 14 23 26 25 24 23 25
183 184 181 174 168 177 185 183 184 175 172 171 167 154 148 154 149 147 152 146 139 130 121 113 103 93 81 70 62 57 54 50 42 37 12 3 18 19 20 18 17 16 19
211 203 189 182 175 171 171 177 175 172 173 170 156 143 127 114 120 139 175 149 142 134 126 116 108 99 86 76 70 62 52 37 34 28 3 19 21 16 18 16 13 12 15
211 206 197 188 180 172 171 166 161 161 164 153 140 135 126 128 141 146 156 135 133 131 126 119 107 95 83 61 57 58 45 39 32 16 8 18 18 13 12 15 11 9 13
208 201 200 195 183 177 174 166 161 152 146 145 143 138 138 137 140 116 89 86 78 87 80 94 86 74 73 68 57 48 44 41 28 11 0 14 14 12 12 18 18 13 15
205 204 196 192 189 186 177 173 168 164 162 163 158 150 148 151 149 141 129 128 119 111 116 108 110 102 89 78 71 58 47 41 25 11 4 20 20 19 21 25 31 25 21
214 209 198 191 195 189 184 184 182 183 178 170 162 163 161 162 160 150 146 150 154 148 144 139 129 117 103 84 62 53 42 29 22 20 8 23 30 29 26 29 35 32 31
219 211 198 196 196 189 193 194 191 186 176 169 171 170 168 163 158 154 154 161 165 154 144 140 130 116 101 89 63 49 44 26 21 30 28 26 34 38 32 31 33 33 34
218 208 201 199 194 194 197 196 189 184 178 181 178 171 170 167 164 160 159 161 157 142 139 127 117 112 112 108 79 51 43 26 30 38 39 37 33 41 44 44 39 34 31
213 204 202 196 196 199 198 192 189 186 186 187 179 175 174 171 166 160 159 158 148 147 154 146 141 120 93 78 60 47 43 37 37 41 47 47 47 47 43 45 41 39 34
213 205 198 196 196 198 196 189 185 181 188 183 175 176 178 174 169 162 158 152 149 152 159 156 131 130 111 72 55 57 48 57 54 55 60 55 51 52 41 32 33 33 31
214 205 200 198 197 188 177 166 163 172 181 174 180 184 180 177 170 159 156 155 153 154 163 158 128 109 121 133 91 70 54 61 62 66 73 66 52 49 36 29 26 27 32
211 202 200 197 193 178 179 181 182 191 188 189 191 187 182 173 168 163 161 157 163 170 169 154 133 134 120 143 109 78 53 54 56 51 68 69 55 39 32 28 22 22 15
212 204 200 198 190 188 191 189 180 163 177 183 175 175 174 169 169 170 167 171 172 165 165 170 154 149 142 100 131 115 86 54 29 23 56 71 60 38 33 23 20 21 18
222 207 202 197 190 190 178 158 125 106 103 152 180 184 184 177 175 174 175 173 176 175 179 179 171 159 147 119 114 143 149 191 245 335 17 63 51 47 28 6 19 19 22
228 206 200 188 185 181 172 178 177 185 188 192 187 185 183 181 177 174 175 175 177 177 177 177 174 172 143 146 128 75 111 142 156 200 295 356 24 40 13 354 355 6 29
240 195 182 174 181 182 185 187 190 197 195 164 157 165 173 178 178 176 174 174 176 176 174 171 171 174 164 155 155 146 114 71 110 154 218 327 351 317 313 322 327 19 47
312 198 171 170 175 178 188 192 198 198 177 162 168 171 173 173 180 183 178 180 179 176 176 177 177 177 177 162 164 159 154 155 170 163 170 199 279 296 305 321 358 60 76